Weather in Nyagan

Russia / Khanty-Mansi Autonomous Okrug — Yugra     62°08′44″N   65°26′01″E
temp.,
°C
wind,
m/s
gust,
m/s
humid.,
%
clouds,
%
prec.,
mm/h
press.,
hPa
HPBL,
m
14 june, mon
mon1423:00+19ssw310505 0.0 1017192
02:00+18ssw3115768 0.0 1016219
05:00+18sw31166100 0.1 1016279
08:00+24sw4844100 0.1 1015788
11:00+27sw583710 0.1 10141931
14:00+26wsw593996 0.0 10131863
17:00+24wnw374522 0.1 1012491
20:00+23ssw3859100 0.4 1011247
15 june, tue
tue1523:00+22sw412515 0.4 1010418
02:00+17sw31076100 0.4 1009233
05:00+17ssw388435 0.6 1008204
08:00+22wsw4957100 0.0 1007717
11:00+25wsw574686 0.0 10061814
14:00+19w51085100 1.3 1006639
17:00+20w498052 4.4 1005853
20:00+18nnw49860 3.1 1007625
16 june, wed
wed1623:00+14n41087100 3.3 1009533
02:00+12nw310880 0.0 1010315
05:00+11nw39770 0.0 1011297
08:00+16nw354322 0.0 1012774
11:00+21nw352675 0.0 10111354
14:00+24nw242426 0.0 10101858
17:00+25wnw14255 0.0 10082049
20:00+23ese23380 0.0 100770
17 june, thu
thu1723:00+16se39510 0.0 1006174
02:00+16s314553 0.0 1005295
05:00+17s311605 0.0 1002296
08:00+23s4105896 0.3 1000658
11:00+27ssw61040100 0.3 9981934
14:00+17ssw31293100 1.8 998570
17:00+11wnw71593100 3.4 997493
20:00+7nw61290100 0.4 1002872
18 june, fri
fri1823:00+5nw61286100 0.6 10051141
02:00+4nw61396100 0.3 10061003
05:00+4nw61496100 0.5 10081032
08:00+5nnw6148797 0.3 10091245
11:00+10nnw6115199 0.5 10111917
14:00+13nnw51038100 0.0 10112340
17:00+13n6942100 0.0 10122108
20:00+11n411475 0.0 10142005